User: anonymous
Location: Simi Valley
(34.2690°N, 118.7810°W)
Time: 20:49:05
(UTC-07:00)
Language:

SAR-Lupe-1 - Orbit

View from above orbital plane
View from above orbital plane
View from above satellite
View from above satellite

Ground track
Ground track

The orbit data is extracted from the following two-line orbital elements,

1 29658U 06060A   13229.95166675 0.00000000  00000-0  00000-0 0    07
2 29658  98.1139 130.6054 0003000 313.6390  46.3609 15.27439471    01
Epoch (UTC): 17 August 2013 22:50:24
Eccentricity: 0.0003000
inclination: 98.1139°
perigee height: 481 km
apogee height: 485 km
right ascension of ascending node: 130.6054°
argument of perigee: 313.6390°
revolutions per day: 15.27439471
mean anomaly at epoch: 46.3609°
orbit number at epoch: 0

The dashed part of the orbit path shows where the satellite is in the earth's shadow,  

DLR